This is the latest recevied weather packets stored in our database for station/object IVARAZ6. If no packets are shown the sender has not sent any weather packets the latest 10 day(s).
| Time | Temp. | Humidity | Pressure | Rain* | Wind** | Luminosity | Snow |
|---|---|---|---|---|---|---|---|
| 1778238685 | 21.67° C | 61% | 1011.8 hPa | 0 mm | - | 383 W/m² | - |
| 1778238379 | 21.67° C | 62% | 1011.9 hPa | 0 mm | - | 380 W/m² | - |
| 1778237479 | 21.11° C | 62% | 1012 hPa | 0 mm | - | 385 W/m² | - |
| 1778236585 | 20.56° C | 67% | 1012.1 hPa | 0 mm | - | 517 W/m² | - |
| 1778236279 | 20.56° C | 67% | 1012 hPa | 0 mm | - | 374 W/m² | - |
| 1778232683 | 20° C | 69% | 1011.5 hPa | 0 mm | - | 417 W/m² | - |
| 1778232085 | 20° C | 70% | 1011.6 hPa | 0 mm | - | 369 W/m² | - |
| 1778231779 | 20° C | 70% | 1011.6 hPa | 0 mm | - | 339 W/m² | - |
| 1778230579 | 20° C | 70% | 1011.4 hPa | 0 mm | - | 381 W/m² | - |
| 1778229379 | 19.44° C | 71% | 1011.3 hPa | 0 mm | - | 350 W/m² | - |
| 1778227879 | 19.44° C | 71% | 1011.1 hPa | 0 mm | - | 283 W/m² | - |
| 1778226979 | 19.44° C | 70% | 1011.2 hPa | 0 mm | - | 264 W/m² | - |
| 1778226679 | 19.44° C | 70% | 1011.1 hPa | 0 mm | - | 258 W/m² | - |
| 1778226085 | 19.44° C | 70% | 1011 hPa | 0 mm | - | 239 W/m² | - |
| 1778225479 | 19.44° C | 71% | 1011 hPa | 0 mm | - | 269 W/m² | - |
| 1778223082 | 18.33° C | 73% | 1010.6 hPa | 0 mm | - | 274 W/m² | - |
| 1778222182 | 17.78° C | 74% | 1010.6 hPa | 0 mm | - | 221 W/m² | - |
| 1778221879 | 17.78° C | 74% | 1010.6 hPa | 0 mm | - | 216 W/m² | - |
| 1778221579 | 17.22° C | 74% | 1010.6 hPa | 0 mm | - | 216 W/m² | - |
| 1778220079 | 16.67° C | 75% | 1010.5 hPa | 0 mm | - | 123 W/m² | - |
| 1778217979 | 15.56° C | 77% | 1010.5 hPa | 0 mm | - | 86 W/m² | - |
| 1778217382 | 15.56° C | 77% | 1010.5 hPa | 0 mm | - | 70 W/m² | - |
| 1778217079 | 15° C | 78% | 1010.4 hPa | 0 mm | - | 62 W/m² | - |
| 1778216479 | 15° C | 77% | 1010.2 hPa | 0 mm | - | 47 W/m² | - |
| 1778216179 | 15° C | 77% | 1010.2 hPa | 0 mm | - | 40 W/m² | - |
* Rain latest hour (hover to see other rain measurements)
** Current wind speed in m/s (hover to see current wind gust speed)